Location: Mahannah Oil Field
(37.4664°N, 96.6003°W)
Time: 01:49:45
(UTC+00:00)

A-11 Canister half - Pass Details

Date: 01 February 2021
Orbit: 1524 x 1684 km, 47.3° (Epoch: 25 February)

Event Time Altitude Azimuth Distance (km) Brightness Sun altitude
Rises 23:39:48 0° 299° (WNW) 4,703 12.2 1.2°
Reaches altitude 10° 23:42:52 10° 302° (WNW) 3,733 11.6 0.7°
Maximum altitude 23:52:18 68° 25° (NNE) 1,686 9.1 -1.1°
Drops below altitude 10° 00:02:03 10° 108° (ESE) 3,848 10.6 -2.9°
Sets 00:05:15 0° 111° (ESE) 4,854 11.1 -3.5°
